GW6609 Weather Reports


Display with metric or nautical units.
time (UTC)temp
F
wind
direction
speed
MPH
gust
MPH
rain 1hr
in
rain 24hr
in
rain mn
in
humidity
%
barometer
mb
20260504070114 94 64 1.0 1.0 0.00 0.00 0.00 53 1007.0
20260504060114 91 228 4.0 5.0 0.00 0.00 0.00 59 1008.0
20260504050614 90 216 6.0 7.0 0.00 0.00 0.00 60 1008.0
20260504050114 91 257 5.0 6.0 0.00 0.00 0.00 58 1009.0
20260504045614 89 154 4.0 5.0 0.00 0.00 0.00 60 1008.0
20260504045114 89 236 4.0 6.0 0.00 0.00 0.00 61 1009.0
20260504044614 89 209 5.0 8.0 0.00 0.00 0.00 60 1009.0
20260504044115 90 59 3.0 5.0 0.00 0.00 0.00 59 1009.0
20260504043618 89 84 1.0 1.0 0.00 0.00 0.00 60 1009.0
20260504043114 90 278 4.0 5.0 0.00 0.00 0.00 59 1009.0
20260504042614 90 64 2.0 2.0 0.00 0.00 0.00 59 1009.0
20260504042114 89 277 4.0 6.0 0.00 0.00 0.00 60 1009.0
20260504041615 89 244 4.0 5.0 0.00 0.00 0.00 60 1009.0
20260504041114 88 69 3.0 6.0 0.00 0.00 0.00 62 1009.0
20260504040614 88 166 4.0 5.0 0.00 0.00 0.00 62 1009.0
20260504040114 88 70 3.0 5.0 0.00 0.00 0.00 61 1009.0
20260504035614 89 59 2.0 3.0 0.00 0.00 0.00 60 1009.0
20260504035114 89 207 5.0 8.0 0.00 0.00 0.00 59 1009.0
20260504034614 89 59 2.0 3.0 0.00 0.00 0.00 58 1009.0
20260504034114 90 105 2.0 2.0 0.00 0.00 0.00 55 1009.0
20260504033615 90 164 5.0 6.0 0.00 0.00 0.00 55 1009.0
20260504032635 88 337 3.0 3.0 0.00 0.00 0.00 56 1008.0
20260504032114 88 111 3.0 3.0 0.00 0.00 0.00 59 1008.0
20260504031614 89 110 2.0 2.0 0.00 0.00 0.00 56 1008.0
20260504031115 90 52 1.0 1.0 0.00 0.00 0.00 54 1008.0
20260504030614 90 52 0.0 0.0 0.00 0.00 0.00 53 1008.0
20260504030115 89 52 0.0 1.0 0.00 0.00 0.00 55 1008.0
20260504025615 88 52 0.0 1.0 0.00 0.00 0.00 56 1008.0
20260504025114 88 52 0.0 0.0 0.00 0.00 0.00 57 1008.0
20260504024614 88 52 1.0 1.0 0.00 0.00 0.00 59 1007.0
20260504024114 87 53 1.0 1.0 0.00 0.00 0.00 61 1007.0
20260504023614 86 49 2.0 2.0 0.00 0.00 0.00 62 1007.0
20260504023115 86 67 5.0 5.0 0.00 0.00 0.00 62 1007.0
20260504022614 85 72 1.0 2.0 0.00 0.00 0.00 63 1007.0
20260504022114 85 71 2.0 2.0 0.00 0.00 0.00 65 1007.0
20260504021614 85 68 2.0 2.0 0.00 0.00 0.00 64 1007.0
20260504021115 84 72 1.0 2.0 0.00 0.00 0.00 66 1007.0
20260504020614 84 57 0.0 0.0 0.00 0.00 0.00 69 1007.0
20260504020114 83 58 2.0 2.0 0.00 0.00 0.00 69 1007.0
20260504015615 82 61 1.0 2.0 0.00 0.00 0.00 70 1007.0
20260504015114 82 74 3.0 3.0 0.00 0.00 0.00 71 1007.0
20260504014615 82 72 1.0 1.0 0.00 0.00 0.00 71 1007.0
20260504014114 82 71 1.0 1.0 0.00 0.00 0.00 72 1007.0
20260504013614 82 69 1.0 1.0 0.00 0.00 0.00 71 1007.0
20260504013115 82 70 0.0 0.0 0.00 0.00 0.00 71 1007.0
20260504012615 81 70 1.0 1.0 0.00 0.00 0.00 71 1007.0
20260504012114 81 69 1.0 1.0 0.00 0.00 0.00 72 1007.0
20260504011614 81 68 0.0 0.0 0.00 0.00 0.00 72 1007.0
20260504011115 81 68 1.0 1.0 0.00 0.00 0.00 71 1006.0
20260504010614 80 69 1.0 1.0 0.00 0.00 0.00 71 1006.0
20260504010114 80 65 0.0 1.0 0.00 0.00 0.00 72 1006.0
20260504005614 80 58 1.0 2.0 0.00 0.00 0.00 73 1006.0
20260504005114 80 58 2.0 2.0 0.00 0.00 0.00 73 1006.0
20260504004615 80 55 1.0 2.0 0.00 0.00 0.00 73 1006.0
20260504004114 79 59 0.0 1.0 0.00 0.00 0.00 74 1006.0
20260504003614 80 44 2.0 2.0 0.00 0.00 0.00 73 1006.0
20260504003114 80 52 1.0 2.0 0.00 0.00 0.00 72 1006.0
20260504002615 80 35 3.0 3.0 0.00 0.00 0.00 72 1006.0
20260504002115 80 41 1.0 1.0 0.00 0.00 0.00 72 1006.0
20260504001614 80 40 1.0 2.0 0.00 0.00 0.00 72 1006.0
20260504001114 80 42 2.0 2.0 0.00 0.00 0.00 72 1006.0
20260504000614 80 42 1.0 2.0 0.00 0.00 0.00 72 1006.0
20260504000114 80 42 1.0 2.0 0.00 0.00 0.00 71 1006.0
20260503235614 80 42 1.0 2.0 0.00 0.00 0.00 71 1006.0
20260503235115 80 42 2.0 2.0 0.00 0.00 0.00 71 1006.0
20260503234614 80 42 0.0 1.0 0.00 0.00 0.00 72 1006.0
20260503234114 80 43 0.0 0.0 0.00 0.00 0.00 72 1006.0
20260503233614 80 42 0.0 1.0 0.00 0.00 0.00 73 1006.0
20260503233115 80 42 1.0 1.0 0.00 0.00 0.00 74 1006.0
20260503232614 80 51 0.0 0.0 0.00 0.00 0.00 72 1006.0
20260503232114 80 51 0.0 0.0 0.00 0.00 0.00 72 1006.0
20260503231614 80 52 1.0 1.0 0.00 0.00 0.00 70 1005.0
20260503231114 80 53 0.0 0.0 0.00 0.00 0.00 71 1006.0
20260503230614 80 53 0.0 0.0 0.00 0.00 0.00 72 1006.0
20260503230114 80 53 0.0 1.0 0.00 0.00 0.00 73 1005.0
20260503225614 80 54 1.0 2.0 0.00 0.00 0.00 73 1005.0
20260503225115 80 57 1.0 1.0 0.00 0.00 0.00 73 1006.0
20260503224614 80 67 1.0 1.0 0.00 0.00 0.00 71 1005.0
20260503224115 80 74 0.0 0.0 0.00 0.00 0.00 72 1005.0
20260503223614 80 75 0.0 0.0 0.00 0.00 0.00 72 1005.0
20260503223114 80 80 1.0 1.0 0.00 0.00 0.00 71 1005.0
20260503222615 80 71 0.0 0.0 0.00 0.00 0.00 71 1005.0
20260503222114 80 80 1.0 1.0 0.00 0.00 0.00 71 1005.0
20260503221614 80 80 0.0 1.0 0.00 0.00 0.00 71 1005.0
20260503221115 80 81 1.0 1.0 0.00 0.00 0.00 70 1005.0
20260503220614 80 75 2.0 2.0 0.00 0.00 0.00 70 1005.0
20260503220114 81 73 0.0 0.0 0.00 0.00 0.00 69 1005.0
20260503215614 81 72 1.0 1.0 0.00 0.00 0.00 68 1005.0
20260503215114 82 86 1.0 1.0 0.00 0.00 0.00 66 1005.0
20260503214614 82 78 0.0 1.0 0.00 0.00 0.00 64 1005.0
20260503214114 82 67 0.0 0.0 0.00 0.00 0.00 63 1005.0
20260503213614 82 67 1.0 1.0 0.00 0.00 0.00 63 1005.0
20260503213115 82 68 0.0 0.0 0.00 0.00 0.00 64 1005.0
20260503212614 82 64 1.0 1.0 0.00 0.00 0.00 63 1005.0
20260503212115 82 67 1.0 1.0 0.00 0.00 0.00 64 1005.0
20260503211614 82 39 2.0 2.0 0.00 0.00 0.00 64 1005.0
20260503211114 82 58 0.0 0.0 0.00 0.00 0.00 64 1005.0
20260503210614 82 31 3.0 3.0 0.00 0.00 0.00 64 1005.0
20260503210115 82 50 2.0 2.0 0.00 0.00 0.00 64 1005.0
20260503205614 82 51 4.0 6.0 0.00 0.00 0.00 63 1005.0
20260503205119 82 61 1.0 2.0 0.00 0.00 0.00 63 1005.0
20260503204614 82 58 0.0 1.0 0.00 0.00 0.00 64 1005.0
20260503204114 82 46 1.0 2.0 0.00 0.00 0.00 64 1005.0
20260503203139 83 63 1.0 1.0 0.00 0.00 0.00 64 1005.0
20260503202614 83 43 4.0 6.0 0.00 0.00 0.00 63 1005.0
20260503202114 83 52 2.0 3.0 0.00 0.00 0.00 63 1005.0
20260503201614 83 63 5.0 7.0 0.00 0.00 0.00 63 1005.0
20260503201114 84 48 4.0 6.0 0.00 0.00 0.00 64 1005.0
20260503200614 84 42 5.0 6.0 0.00 0.00 0.00 64 1005.0
20260503200115 84 35 5.0 7.0 0.00 0.00 0.00 64 1005.0
20260503195615 84 43 5.0 6.0 0.00 0.00 0.00 67 1005.0
20260503195114 84 68 5.0 7.0 0.00 0.00 0.00 72 1005.0
20260503194615 84 52 2.0 2.0 0.00 0.00 0.00 74 1006.0
20260503194114 84 57 1.0 1.0 0.00 0.00 0.00 73 1006.0
20260503193616 84 70 1.0 2.0 0.00 0.00 0.00 73 1006.0
20260503193114 85 76 0.0 0.0 0.00 0.00 0.00 72 1006.0
20260503192614 85 79 1.0 2.0 0.00 0.00 0.00 71 1006.0
20260503192115 85 74 1.0 1.0 0.00 0.00 0.00 70 1006.0
20260503191615 85 71 0.0 0.0 0.00 0.00 0.00 70 1006.0
20260503191114 85 72 0.0 0.0 0.00 0.00 0.00 70 1006.0
20260503190614 86 52 2.0 2.0 0.00 0.00 0.00 69 1006.0
20260503190114 86 62 0.0 0.0 0.00 0.00 0.00 68 1006.0
20260503185614 86 57 1.0 2.0 0.00 0.00 0.00 67 1006.0
20260503185114 86 56 0.0 0.0 0.00 0.00 0.00 67 1006.0
20260503184614 86 54 1.0 1.0 0.00 0.00 0.00 67 1006.0
20260503184115 86 6 3.0 3.0 0.00 0.00 0.00 66 1006.0
20260503183614 86 37 4.0 6.0 0.00 0.00 0.00 66 1006.0
20260503183114 86 42 3.0 5.0 0.00 0.00 0.02 65 1006.0
20260503182614 85 48 3.0 5.0 0.00 0.00 0.02 65 1005.0
20260503182114 86 340 8.0 14.0 0.00 0.00 0.02 62 1005.0
20260503181200 85 28 13.0 16.0 0.00 0.00 0.02 64 1005.0
20260503180614 85 56 4.0 6.0 0.00 0.00 0.02 62 1006.0
20260503180114 84 46 4.0 5.0 0.00 0.00 0.02 65 1007.0
20260503175624 84 44 1.0 2.0 0.00 0.00 0.02 67 1007.0
20260503175114 84 44 0.0 1.0 0.00 0.00 0.02 66 1007.0
20260503174614 85 46 1.0 1.0 0.00 0.00 0.02 64 1007.0
20260503174114 84 29 4.0 5.0 0.00 0.00 0.02 63 1007.0
20260503173614 84 64 0.0 1.0 0.00 0.00 0.02 64 1007.0
20260503173114 84 78 1.0 2.0 0.00 0.00 0.02 64 1007.0
20260503172614 84 58 2.0 2.0 0.00 0.00 0.02 64 1006.0
20260503172114 84 50 5.0 6.0 0.00 0.00 0.02 65 1006.0
20260503171614 83 29 6.0 8.0 0.00 0.00 0.02 71 1007.0
20260503171114 82 37 5.0 7.0 0.00 0.00 0.02 75 1007.0
20260503170615 82 50 5.0 7.0 0.00 0.00 0.02 79 1007.0
20260503170115 82 49 1.0 2.0 0.00 0.00 0.02 79 1007.0
20260503160114 82 50 1.0 1.0 0.07 0.00 0.02 72 1006.0
20260503150614 85 76 0.0 1.0 0.00 0.00 0.00 66 1005.0
20260503150114 85 92 1.0 1.0 0.00 0.00 0.00 65 1005.0
20260503140114 84 83 8.0 13.0 0.00 0.00 0.00 74 1006.0
20260503131114 90 92 2.0 3.0 0.00 0.00 0.00 70 1004.0
20260503130614 90 40 3.0 3.0 0.00 0.00 0.00 70 1003.0
20260503130114 90 53 2.0 2.0 0.00 0.00 0.00 70 1003.0
20260503120114 94 68 4.0 6.0 0.00 0.00 0.00 65 1002.0
20260503110614 98 334 6.0 8.0 0.00 0.00 0.00 57 1001.0
20260503110114 99 42 4.0 5.0 0.00 0.00 0.00 57 1001.0
20260503100115 103 51 3.0 5.0 0.00 0.00 0.00 41 1002.0
20260503090114 105 24 3.0 5.0 0.00 0.00 0.00 40 1003.0
20260503081614 101 71 3.0 3.0 0.00 0.00 0.00 44 1003.0
20260503081114 102 44 5.0 7.0 0.00 0.00 0.00 46 1003.0
20260503080614 102 34 2.0 2.0 0.00 0.00 0.00 44 1003.0
20260503080114 102 65 3.0 5.0 0.00 0.00 0.00 44 1004.0